(324) Bamberga
ephemeris date magn radius delta ra dec elong phase
Today13 Jun 202610.82.264 AU1.470 AU21h04m-27°40'130.4°20.0°
Opposition27 Jul 20269.42.101 AU1.091 AU20h39m-27°13'171.4°4.1°
(324) Bamberga - 2026-06-13
astro.vanbuitenen.nl


 
-1 year
-1 month
-1 day
Now
+1 day
+1 month
+1 year

The interactive orbit chart above shows the body's path through the solar system and its position at the given date. Green and blue lines are shown perpendicular to the ecliptic plane: Green if the path is above the ecliptic plane, blue if it is below. (Left-click and drag to rotate the view; Right-click and drag to move the view; Use scroll wheel to zoom in our out.)

The orbital elements of Bamberga are:

            e (Eccentricity)                : 0.3403597
            a (Semimajor axis)              : 2.6825606
            i (Inclination)                 : 11.09650
            Ω (Longitude of ascending node) : 327.82350
            ω (Argument of perihelion)      : 44.18770
            M (Mean anomaly)                : 313.72326
            Epoch                           : 2026 Jun 09

            L (Longitude of perihelion)     : 11.47094
            B (Latitude of perihelion)      : 7.70937
            P (Orbital period in years)     : 4.39            
        

The light curve chart below shows the estimated development of the minor planet's magnitude.


The all-sky chart below shows the path of the minor planet over the same period as the light curve. The current position is marked yellow.





The following chart shows the path of the minor planet in the next few days. The field of view is optimized for (~10x50) binoculars and finderscopes.




Ephemerides:
Date       Time       RA (2000)    DEC (2000)    delta   radius  elong  phase   PA    magn
2026-06-13 00:00 UT   21 04 17.7   -27 40 00     1.470    2.264  130.4   20.0   262   10.8 
2026-06-13 23:11 UT   21 04 26.5   -27 39 26     1.458    2.260  131.2   19.7   262   10.8 
2026-06-14 00:00 UT   21 04 26.8   -27 39 25     1.457    2.260  131.3   19.7   262   10.8 
2026-06-15 00:00 UT   21 04 34.0   -27 38 53     1.445    2.256  132.2   19.5   263   10.7 
2026-06-16 00:00 UT   21 04 39.2   -27 38 25     1.433    2.253  133.1   19.2   263   10.7 
2026-06-17 00:00 UT   21 04 42.5   -27 37 59     1.421    2.249  134.0   19.0   263   10.7 
2026-06-18 00:00 UT   21 04 43.7   -27 37 36     1.409    2.245  134.9   18.7   264   10.6 
2026-06-19 00:00 UT   21 04 42.9   -27 37 15     1.398    2.241  135.8   18.4   264   10.6 
2026-06-20 00:00 UT   21 04 40.1   -27 36 57     1.386    2.238  136.8   18.1   264   10.6 
2026-06-21 00:00 UT   21 04 35.2   -27 36 41     1.375    2.234  137.7   17.8   265   10.6 
2026-06-22 00:00 UT   21 04 28.3   -27 36 27     1.364    2.230  138.7   17.5   265   10.5 
2026-06-23 00:00 UT   21 04 19.4   -27 36 15     1.353    2.226  139.6   17.2   266   10.5 
2026-06-24 00:00 UT   21 04 08.4   -27 36 05     1.342    2.223  140.6   16.9   266   10.5 
2026-06-25 00:00 UT   21 03 55.3   -27 35 57     1.331    2.219  141.5   16.6   266   10.4 
2026-06-26 00:00 UT   21 03 40.1   -27 35 49     1.321    2.215  142.5   16.2   267   10.4 
2026-06-27 00:00 UT   21 03 22.8   -27 35 43     1.311    2.212  143.5   15.9   267   10.4 
2026-06-28 00:00 UT   21 03 03.5   -27 35 37     1.300    2.208  144.4   15.5   268   10.3 
2026-06-29 00:00 UT   21 02 42.0   -27 35 32     1.290    2.204  145.4   15.2   268   10.3 
2026-06-30 00:00 UT   21 02 18.5   -27 35 27     1.281    2.200  146.4   14.8   269   10.3 
2026-07-01 00:00 UT   21 01 52.8   -27 35 22     1.271    2.197  147.4   14.4   270   10.2 
2026-07-02 00:00 UT   21 01 25.1   -27 35 17     1.261    2.193  148.4   14.1   270   10.2 
2026-07-03 00:00 UT   21 00 55.3   -27 35 11     1.252    2.189  149.4   13.7   271   10.2 
2026-07-04 00:00 UT   21 00 23.4   -27 35 05     1.243    2.186  150.4   13.3   272   10.1 
2026-07-05 00:00 UT   20 59 49.4   -27 34 57     1.234    2.182  151.4   12.9   273   10.1 
2026-07-06 00:00 UT   20 59 13.4   -27 34 48     1.226    2.178  152.5   12.5   273   10.1 
2026-07-07 00:00 UT   20 58 35.4   -27 34 37     1.217    2.175  153.5   12.0   274   10.0 
2026-07-08 00:00 UT   20 57 55.4   -27 34 24     1.209    2.171  154.5   11.6   275   10.0 
2026-07-09 00:00 UT   20 57 13.3   -27 34 08     1.201    2.167  155.5   11.2   276   10.0 
2026-07-10 00:00 UT   20 56 29.4   -27 33 49     1.193    2.164  156.6   10.8   277    9.9 
2026-07-11 00:00 UT   20 55 43.5   -27 33 28     1.185    2.160  157.6   10.3   279    9.9 
2026-07-12 00:00 UT   20 54 55.7   -27 33 02     1.178    2.156  158.6    9.9   280    9.9 
2026-07-13 00:00 UT   20 54 06.1   -27 32 32     1.171    2.153  159.6    9.5   281    9.8 


    Terminology:
            
    delta:  distance between minor planet and earth in AU
    radius: distance between minor planet and sun in AU
    magn:   magnitude (brightness) estimate    
    ra:     right ascension in hours (24h = 360deg)
    dec:    declination in degrees
    elong:  elongation in degrees (angle sun-earth-minor planet)    
    phase:  phase angle in degrees (angle sun-minor planet-earth)        
    AU:     Astronomical Unit (mean distance between earth and sun: 149597870.7 km
    

Orbital elements provided by the MPC (Minor Planet Center).
Calculations by a modified version of AAPlus, a C# implementation of the AA+ project by PJ Naughter from the algorithms presented in the book "Astronomical Algorithms" by Jean Meeus.
NGC2000 dso catalog and star labels from VizieR as provided by the Strasbourg astronomical Data Center.
Tycho2 catalog from the ESO archive.